Gorham, NH

7:54 PM EST on March 03, 2015 (GMT -0500)
Berlin Municipal | Change Station
CLOSE
Current Station
Airport
Location: Berlin,
Elevation: 1158 ft
Nearby Weather Stations
Active Advisory: Winter Weather Advisory

Elev 1158 ft 44.58 °N, 71.18 °W | Updated 7 minutes ago

Overcast
Overcast
21 °F
Feels Like 8 °F
N
15
Wind Variable Wind from SSE
Gusts 22 mph

Today
High -- | Low -- °F
--% Chance of Precip.
Yesterday
High -- | Low -- °F
Precip. -- in
6:19 AM 5:35 PM
Waxing Gibbous, 97% visible
Pressure 29.86 in
Visibility 2.5 miles
Clouds Overcast 2700 ft
Windchill 8 °F
Dew Point 10 °F
Humidity 63%
Rainfall 0.00 in
Snow Depth Not available.
UV 0 out of 12
Pollen .40 out of 12
Air Quality Not available.
Flu Activity Not available.
SPECI KBML 040047Z AUTO 15013G19KT 2 1/2SM -SN OVC027 M06/M12 A2986 RMK AO2 SNB43 P0000

More Conditions Fewer Conditions

Pressure 29.86 in
Visibility 2.5 miles
Clouds Overcast 2700 ft
Windchill 8 °F
Dew Point 10 °F
Humidity 63%
Rainfall 0.00 in
Snow Depth Not available.
UV 0 out of 12
Pollen .40 out of 12
Air Quality Not available.
Flu Activity Not available.
SPECI KBML 040047Z AUTO 15013G19KT 2 1/2SM -SN OVC027 M06/M12 A2986 RMK AO2 SNB43 P0000

More Conditions Fewer Conditions

10-Day Weather Forecast

Almanac

Astronomy

Mar. 03, 2015 Rise Set
Actual Time
Civil Twilight
Nautical Twilight
Astronomical Twilight
Moon
Length of Visible Light
Length of Day
Tomorrow will be .
, % of the Moon is Illuminated

Today's Extremes

State Highs State Lows

Community

WunderPhotos

Upload Photos

1,802,340 photos uploaded!

WunderBlogs® & News

Nearby

Air Quality

  Air Quality AQ Index Pollutant
Not available.

Snow Depth

Station Depth Elevation

Earthquake Activity

City Distance Mag. Time & Date
Minimum magnitude displayed is 2.5.

Coastal Water Temperatures

Place Temperature

Nearby Weather Stations

Winter Weather Advisory
Statement as of 3:06 PM EST on March 03, 2015

... Winter Weather Advisory remains in effect until 7 am EST
Wednesday...

* hazard types... snow

* accumulations... snow accumulation of 3 to 5 inches.

* Timing... snow will begin late today and continue overnight...
ending by sunrise Wednesday.

* Impacts... roads will become snow covered and slippery.

* Winds... south 10 to 20 mph with gusts up to 40 mph.

* Temperatures... in the mid 20s.

Precautionary/preparedness actions...

A Winter Weather Advisory for snow means that periods of snow
will cause primarily travel difficulties. Be prepared for snow
covered roads and limited visibilities... and use caution while
driving.